Waarnemingen

Advertentie
Mijn weer
Koblenz/Falkensteinkaserne, Duitsland (10516): temperatuur & dauwpunt: 19.09.2017 06:00:00 - 25.09.2017 06:00:00 (CEST)Koblenz/Falkensteinkaserne, Duitsland (10516): windsnelheid: 19.09.2017 06:00:00 - 25.09.2017 06:00:00 (CEST)Koblenz/Falkensteinkaserne, Duitsland (10516): windrichting: 19.09.2017 06:00:00 - 25.09.2017 06:00:00 (CEST)Koblenz/Falkensteinkaserne, Duitsland (10516): luchtdruk: 19.09.2017 06:00:00 - 25.09.2017 06:00:00 (CEST)Koblenz/Falkensteinkaserne, Duitsland (10516): zicht: 19.09.2017 06:00:00 - 25.09.2017 06:00:00 (CEST)
Datum & Tijd tt [°C] td [°C] ff [km/u] ff [kn] dd ppp [hPa] vv [km]
25.09.2017 06:00:00 9,7 9,0 4 2 N 1021,9 -
25.09.2017 05:00:00 10,1 9,4 4 2 W 1022,0 -
25.09.2017 04:00:00 10,1 9,4 4 2 ZZW 1022,3 -
25.09.2017 03:00:00 10,1 9,3 4 2 WZW 1022,4 -
25.09.2017 02:00:00 10,1 9,1 4 2 N 1022,6 -
25.09.2017 01:00:00 11,6 10,3 4 2 N 1022,7 -
25.09.2017 00:00:00 11,9 10,7 4 2 N 1022,9 -
24.09.2017 23:00:00 11,6 10,5 4 2 N 1023,0 -
24.09.2017 22:00:00 12,2 10,4 4 2 NNW 1022,8 -
24.09.2017 21:00:00 13,8 10,7 4 2 N 1022,6 -
24.09.2017 20:00:00 15,3 10,9 4 2 NNW 1022,1 -
24.09.2017 19:00:00 17,4 11,1 7 4 NNO 1022,2 -
24.09.2017 18:00:00 17,9 11,1 7 4 N 1022,0 -
24.09.2017 17:00:00 18,6 11,0 7 4 N 1021,8 -
24.09.2017 16:00:00 19,4 11,0 4 2 ZZO 1022,0 -
24.09.2017 15:00:00 17,7 11,0 4 2 WNW 1022,5 -
24.09.2017 14:00:00 15,1 10,9 4 2 NNO 1023,1 -
24.09.2017 13:00:00 12,5 10,7 7 4 NNW 1023,5 -
24.09.2017 12:00:00 - - - - - - -
24.09.2017 11:00:00 - - - - - - -
24.09.2017 10:00:00 10,6 10,0 4 2 NW 1023,7 -
24.09.2017 09:00:00 10,2 9,6 4 2 WNW 1023,3 -
24.09.2017 08:00:00 10,3 9,7 4 2 WNW 1023,1 -
24.09.2017 07:00:00 10,5 9,8 7 4 WNW 1022,7 -
24.09.2017 06:00:00 10,5 9,8 4 2 NNW 1022,6 -
24.09.2017 05:00:00 10,7 9,9 4 2 WZW 1022,6 -
24.09.2017 04:00:00 10,7 10,0 4 2 N 1022,6 -
24.09.2017 03:00:00 10,1 9,3 0 0 N 1022,7 -
24.09.2017 02:00:00 10,9 10,0 4 2 ZZW 1022,8 -
24.09.2017 01:00:00 11,5 10,6 7 4 ZZW 1022,7 -
24.09.2017 00:00:00 11,7 10,7 4 2 N 1022,7 -
23.09.2017 23:00:00 12,3 11,2 4 2 ZW 1022,7 -
23.09.2017 22:00:00 13,0 11,3 4 2 N 1022,6 -
23.09.2017 21:00:00 14,2 11,4 4 2 NNO 1022,5 -
23.09.2017 20:00:00 16,0 11,2 4 2 NO 1022,1 -
23.09.2017 19:00:00 17,4 11,2 11 6 N 1022,0 -
23.09.2017 18:00:00 17,5 12,1 7 4 NO 1022,1 -
23.09.2017 17:00:00 19,3 9,5 11 6 NNW 1021,9 -
23.09.2017 16:00:00 19,5 9,3 7 4 NNO 1022,3 -
23.09.2017 15:00:00 18,9 9,6 7 4 N 1022,8 -
23.09.2017 14:00:00 17,7 10,4 7 4 N 1023,3 -
23.09.2017 13:00:00 17,3 10,8 4 2 NNW 1023,8 -
23.09.2017 12:00:00 15,3 10,5 4 2 NNW 1024,4 -
23.09.2017 11:00:00 13,3 10,7 4 2 WNW 1024,9 -
23.09.2017 10:00:00 12,8 10,2 4 2 N 1024,7 -
23.09.2017 09:00:00 11,8 10,0 4 2 N 1024,4 -
23.09.2017 08:00:00 11,3 9,8 4 2 ZW 1024,4 -
23.09.2017 07:00:00 11,3 9,9 4 2 N 1024,0 -
23.09.2017 06:00:00 11,1 9,8 4 2 N 1024,1 -
23.09.2017 05:00:00 10,8 9,7 4 2 N 1024,0 -
23.09.2017 04:00:00 10,8 9,6 4 2 N 1024,1 -
23.09.2017 03:00:00 10,8 9,5 4 2 Z 1024,1 -
23.09.2017 02:00:00 11,3 9,7 4 2 N 1024,0 -
23.09.2017 01:00:00 11,6 9,9 7 4 N 1023,4 -
23.09.2017 00:00:00 12,3 10,3 4 2 N 1023,5 -
22.09.2017 23:00:00 12,5 10,2 4 2 O 1023,3 -
22.09.2017 22:00:00 13,2 10,3 7 4 N 1022,8 -
22.09.2017 21:00:00 13,8 10,6 4 2 N 1022,3 18
22.09.2017 20:00:00 15,2 9,9 4 2 N 1021,7 20
22.09.2017 19:00:00 17,6 7,6 4 2 N 1021,1 25
22.09.2017 18:00:00 18,4 8,1 4 2 WNW 1020,9 25
22.09.2017 17:00:00 18,3 7,0 4 2 WNW 1020,8 25
22.09.2017 16:00:00 18,0 8,7 7 4 NW 1020,7 20
22.09.2017 15:00:00 18,6 8,7 4 2 NNO 1020,7 20
22.09.2017 14:00:00 16,8 9,0 4 2 ONO 1020,8 18
22.09.2017 13:00:00 15,3 9,1 7 4 N 1021,1 18
22.09.2017 12:00:00 12,8 8,1 4 2 NW 1021,4 18
22.09.2017 11:00:00 9,7 8,8 4 2 N 1021,7 8
22.09.2017 10:00:00 8,6 7,8 4 2 WZW 1021,8 0,6
22.09.2017 09:00:00 8,2 7,5 4 2 N 1021,4 0,6
22.09.2017 08:00:00 8,2 7,4 4 2 N 1021,4 0,6
22.09.2017 07:00:00 8,5 7,7 7 4 N 1020,9 1,5
22.09.2017 06:00:00 8,5 7,6 7 4 N 1020,7 -
22.09.2017 05:00:00 8,8 7,8 4 2 N 1020,8 -
22.09.2017 04:00:00 9,4 8,0 7 4 N 1020,8 -
22.09.2017 03:00:00 9,4 8,3 7 4 N 1021,1 -
22.09.2017 02:00:00 10,0 8,4 7 4 N 1021,3 -
22.09.2017 01:00:00 10,5 8,5 7 4 N 1021,0 -
22.09.2017 00:00:00 11,4 8,6 7 4 ZZO 1020,8 -
21.09.2017 23:00:00 11,9 8,6 7 4 N 1020,8 -
21.09.2017 22:00:00 12,7 8,9 7 4 Z 1020,6 -
21.09.2017 21:00:00 13,6 7,9 4 2 OZO 1020,4 30
21.09.2017 20:00:00 15,2 8,1 7 4 N 1020,2 30
21.09.2017 19:00:00 16,8 8,0 7 4 ZZO 1019,9 30
21.09.2017 18:00:00 18,0 5,4 7 4 ZZO 1019,6 30
21.09.2017 17:00:00 18,9 7,4 7 4 Z 1019,6 30
21.09.2017 16:00:00 18,5 8,8 7 4 O 1019,9 30
21.09.2017 15:00:00 18,4 8,2 7 4 O 1020,3 30
21.09.2017 14:00:00 17,1 7,8 7 4 NNW 1020,9 30
21.09.2017 13:00:00 15,1 9,3 4 2 NNW 1021,6 30
21.09.2017 12:00:00 12,7 8,4 7 4 NNW 1022,3 18
21.09.2017 11:00:00 10,5 7,3 4 2 N 1022,9 12
21.09.2017 10:00:00 8,3 7,6 4 2 N 1023,1 1,2
21.09.2017 09:00:00 7,6 6,9 4 2 N 1023,0 0,9
21.09.2017 08:00:00 7,5 6,8 4 2 N 1022,9 0,8
21.09.2017 07:00:00 7,8 7,0 4 2 N 1022,7 0,4
21.09.2017 06:00:00 7,7 6,9 4 2 N 1022,5 -
21.09.2017 05:00:00 8,0 7,1 4 2 Z 1022,6 -
21.09.2017 04:00:00 8,4 7,5 4 2 N 1022,6 -
21.09.2017 03:00:00 8,2 7,2 4 2 N 1022,7 -
21.09.2017 02:00:00 8,8 7,9 4 2 Z 1022,7 -
21.09.2017 01:00:00 8,8 7,8 0 0 N 1022,4 -
21.09.2017 00:00:00 9,6 8,4 4 2 N 1022,4 -
20.09.2017 23:00:00 10,5 8,9 4 2 N 1022,3 -
20.09.2017 22:00:00 11,8 9,4 4 2 N 1022,0 -
20.09.2017 21:00:00 13,0 10,0 4 2 NW 1021,9 30
20.09.2017 20:00:00 14,7 9,2 4 2 WZW 1021,4 30
20.09.2017 19:00:00 15,6 9,0 7 4 WNW 1020,9 30
20.09.2017 18:00:00 16,1 9,0 7 4 ZZW 1020,6 30
20.09.2017 17:00:00 17,1 8,5 7 4 WZW 1020,6 30
20.09.2017 16:00:00 16,0 8,9 7 4 ZZW 1020,9 30
20.09.2017 15:00:00 17,1 9,0 4 2 WNW 1021,2 25
20.09.2017 14:00:00 15,7 9,4 4 2 ZO 1021,9 20
20.09.2017 13:00:00 14,0 9,0 4 2 WNW 1022,4 15
20.09.2017 12:00:00 12,8 8,8 4 2 ZW 1022,8 8
20.09.2017 11:00:00 11,9 8,7 4 2 N 1022,8 8
20.09.2017 10:00:00 10,4 8,1 4 2 ZZO 1022,5 10
20.09.2017 09:00:00 9,6 8,0 4 2 N 1022,5 7
20.09.2017 08:00:00 8,4 7,5 0 0 N 1022,4 4,0
20.09.2017 07:00:00 7,5 6,6 4 2 O 1022,0 5
20.09.2017 06:00:00 8,0 7,0 4 2 NNO 1022,1 -
20.09.2017 05:00:00 8,6 7,2 4 2 ZZW 1021,9 -
20.09.2017 04:00:00 8,8 7,9 4 2 N 1021,9 -
20.09.2017 03:00:00 8,7 7,9 7 4 ZZW 1021,9 -
20.09.2017 02:00:00 8,8 8,0 7 4 N 1021,9 -
20.09.2017 01:00:00 9,2 8,3 7 4 N 1021,7 -
20.09.2017 00:00:00 9,8 8,8 4 2 N 1021,8 -
19.09.2017 23:00:00 9,7 8,1 4 2 N 1021,6 -
19.09.2017 22:00:00 11,1 9,1 4 2 N 1021,2 -
19.09.2017 21:00:00 13,0 9,4 7 4 N 1020,6 15
19.09.2017 20:00:00 13,4 9,7 7 4 NNW 1019,9 18
19.09.2017 19:00:00 14,1 9,5 7 4 NW 1019,3 20
19.09.2017 18:00:00 14,0 9,4 4 2 NW 1018,8 20
19.09.2017 17:00:00 14,0 10,3 7 4 NW 1018,5 20
19.09.2017 16:00:00 14,1 10,4 4 2 N 1018,5 20
19.09.2017 15:00:00 12,5 8,9 7 4 NO 1018,6 15
19.09.2017 14:00:00 15,8 9,2 7 4 ZW 1017,8 25
19.09.2017 13:00:00 14,1 8,2 7 4 N 1017,8 20
19.09.2017 12:00:00 13,5 8,7 4 2 ZW 1018,0 20
19.09.2017 11:00:00 12,6 9,3 7 4 ZW 1017,9 20
19.09.2017 10:00:00 11,8 8,8 7 4 ZZW 1017,9 20
19.09.2017 09:00:00 11,0 8,9 4 2 ZZO 1017,4 20
19.09.2017 08:00:00 10,6 8,4 4 2 Z 1017,2 20
19.09.2017 07:00:00 10,8 7,9 7 4 ZW 1016,8 20
19.09.2017 06:00:00 10,8 7,6 7 4 ZW 1016,5 -

tt = temperatuur
td = dauwpunt
ff = windsnelheid
dd = windrichting
ppp = luchtdruk
vv = zicht

Weerstations in de omgeving